• In Österreich
  • Länderverzeichnis
  • Für 7 Tage
  • Wassertemperatur
  • Satellitenkarten
  • Wetterkarte
  • News
  • Widgets
  • user-avatar
    Anmelden

    Stündliche Wetter Kazaryns'ke

    Heute, 20 Juli, Freitag

    Zeit Temperatur Niederschläge Wind Luftdruck Luftfeuchtigkeit
    00:00 +23°C° 0 mm 2 m/S 743 mmHg 74%
    01:00 +23°C° 0 mm 2 m/S 743 mmHg 77%
    02:00 +21°C° 0 mm 2 m/S 743 mmHg 80%
    03:00 +21°C° 0 mm 2 m/S 744 mmHg 83%
    04:00 +21°C° 0 mm 2 m/S 744 mmHg 85%
    05:00 +20°C° 0 mm 2 m/S 744 mmHg 88%
    06:00 +23°C° 0 mm 2 m/S 744 mmHg 81%
    07:00 +25°C° 0 mm 3 m/S 744 mmHg 74%
    08:00 +26°C° 0 mm 3 m/S 744 mmHg 68%
    09:00 +28°C° 0,1 mm 3 m/S 744 mmHg 61%
    10:00 +29°C° 0,1 mm 4 m/S 744 mmHg 55%
    11:00 +30°C° 0,1 mm 4 m/S 744 mmHg 48%
    12:00 +30°C° 0 mm 4 m/S 744 mmHg 46%
    13:00 +30°C° 0 mm 4 m/S 744 mmHg 45%
    14:00 +32°C° 0 mm 4 m/S 744 mmHg 43%
    15:00 +32°C° 0 mm 4 m/S 744 mmHg 44%
    16:00 +32°C° 0 mm 4 m/S 744 mmHg 44%
    17:00 +30°C° 0 mm 5 m/S 744 mmHg 45%
    18:00 +29°C° 0 mm 4 m/S 744 mmHg 52%
    19:00 +27°C° 0 mm 4 m/S 744 mmHg 59%
    20:00 +26°C° 0 mm 3 m/S 745 mmHg 66%
    21:00 +25°C° 0 mm 3 m/S 745 mmHg 71%
    22:00 +24°C° 0 mm 3 m/S 745 mmHg 75%
    23:00 +22°C° 0 mm 3 m/S 745 mmHg 80%

    Morgen, 21 Juli, Samstag

    Zeit Temperatur Niederschläge Wind Luftdruck Luftfeuchtigkeit
    00:00 +22°C° 0 mm 3 m/S 745 mmHg 83%
    01:00 +21°C° 0 mm 3 m/S 745 mmHg 85%
    02:00 +21°C° 0 mm 3 m/S 745 mmHg 88%
    03:00 +21°C° 0 mm 3 m/S 745 mmHg 89%
    04:00 +20°C° 0 mm 3 m/S 745 mmHg 90%
    05:00 +20°C° 0 mm 3 m/S 745 mmHg 92%
    06:00 +22°C° 0 mm 3 m/S 746 mmHg 85%
    07:00 +23°C° 0 mm 4 m/S 746 mmHg 78%
    08:00 +26°C° 0 mm 4 m/S 746 mmHg 71%
    09:00 +27°C° 0 mm 4 m/S 746 mmHg 65%
    10:00 +29°C° 0 mm 5 m/S 746 mmHg 59%
    11:00 +30°C° 0 mm 5 m/S 746 mmHg 53%
    12:00 +32°C° 0 mm 5 m/S 746 mmHg 50%
    13:00 +32°C° 0 mm 5 m/S 746 mmHg 48%
    14:00 +33°C° 0 mm 5 m/S 746 mmHg 46%
    15:00 +33°C° 0,1 mm 5 m/S 746 mmHg 48%
    16:00 +32°C° 0,1 mm 5 m/S 746 mmHg 49%
    17:00 +32°C° 0,1 mm 5 m/S 746 mmHg 51%
    18:00 +29°C° 0,1 mm 4 m/S 746 mmHg 57%
    19:00 +28°C° 0,1 mm 3 m/S 746 mmHg 63%
    20:00 +26°C° 0,1 mm 3 m/S 746 mmHg 69%
    21:00 +25°C° 0 mm 3 m/S 746 mmHg 73%
    22:00 +25°C° 0 mm 2 m/S 747 mmHg 76%
    23:00 +24°C° 0 mm 2 m/S 747 mmHg 79%

    übermorgen, 22 Juli, Sonntag

    Zeit Temperatur Niederschläge Wind Luftdruck Luftfeuchtigkeit
    00:00 +23°C° 0 mm 2 m/S 747 mmHg 81%
    01:00 +23°C° 0 mm 2 m/S 747 mmHg 83%
    02:00 +21°C° 0 mm 2 m/S 747 mmHg 86%
    03:00 +21°C° 0 mm 2 m/S 747 mmHg 87%
    04:00 +21°C° 0 mm 2 m/S 747 mmHg 88%
    05:00 +20°C° 0 mm 2 m/S 747 mmHg 89%
    06:00 +22°C° 0 mm 3 m/S 747 mmHg 80%
    07:00 +25°C° 0 mm 3 m/S 747 mmHg 72%
    08:00 +26°C° 0 mm 3 m/S 747 mmHg 64%
    09:00 +28°C° 0 mm 3 m/S 747 mmHg 57%
    10:00 +29°C° 0 mm 3 m/S 747 mmHg 51%
    11:00 +30°C° 0 mm 3 m/S 747 mmHg 45%
    12:00 +32°C° 0 mm 4 m/S 747 mmHg 42%
    13:00 +32°C° 0 mm 4 m/S 746 mmHg 40%
    14:00 +33°C° 0 mm 4 m/S 746 mmHg 38%
    15:00 +33°C° 0 mm 4 m/S 746 mmHg 39%
    16:00 +32°C° 0 mm 4 m/S 746 mmHg 40%
    17:00 +32°C° 0 mm 4 m/S 746 mmHg 42%
    18:00 +30°C° 0 mm 3 m/S 746 mmHg 47%
    19:00 +28°C° 0 mm 3 m/S 746 mmHg 53%
    20:00 +26°C° 0 mm 2 m/S 746 mmHg 59%
    21:00 +26°C° 0 mm 2 m/S 746 mmHg 62%
    22:00 +25°C° 0 mm 2 m/S 746 mmHg 65%
    23:00 +24°C° 0 mm 2 m/S 746 mmHg 68%

    23 Juli, Montag

    Zeit Temperatur Niederschläge Wind Luftdruck Luftfeuchtigkeit
    00:00 +23°C° 0 mm 2 m/S 746 mmHg 71%
    01:00 +23°C° 0 mm 2 m/S 746 mmHg 74%
    02:00 +22°C° 0 mm 1 m/S 746 mmHg 77%
    03:00 +22°C° 0 mm 1 m/S 746 mmHg 79%
    04:00 +22°C° 0 mm 1 m/S 746 mmHg 81%
    05:00 +21°C° 0 mm 1 m/S 746 mmHg 83%
    06:00 +23°C° 0 mm 2 m/S 746 mmHg 76%
    07:00 +25°C° 0 mm 2 m/S 746 mmHg 69%
    08:00 +27°C° 0 mm 2 m/S 746 mmHg 62%
    09:00 +28°C° 0 mm 2 m/S 746 mmHg 56%
    10:00 +29°C° 0 mm 3 m/S 746 mmHg 50%
    11:00 +30°C° 0 mm 3 m/S 746 mmHg 44%
    12:00 +31°C° 0 mm 3 m/S 746 mmHg 42%
    13:00 +33°C° 0 mm 3 m/S 745 mmHg 39%
    14:00 +33°C° 0 mm 3 m/S 745 mmHg 37%
    15:00 +33°C° 0 mm 3 m/S 745 mmHg 39%
    16:00 +33°C° 0 mm 3 m/S 745 mmHg 40%
    17:00 +31°C° 0 mm 3 m/S 745 mmHg 41%
    18:00 +30°C° 0 mm 3 m/S 745 mmHg 47%
    19:00 +28°C° 0 mm 2 m/S 745 mmHg 52%
    20:00 +27°C° 0 mm 2 m/S 745 mmHg 57%
    21:00 +26°C° 0 mm 2 m/S 745 mmHg 59%
    22:00 +25°C° 0 mm 2 m/S 745 mmHg 62%
    23:00 +24°C° 0 mm 1 m/S 745 mmHg 64%

    24 Juli, Dienstag

    Zeit Temperatur Niederschläge Wind Luftdruck Luftfeuchtigkeit
    00:00 +24°C° 0 mm 1 m/S 745 mmHg 66%
    01:00 +23°C° 0 mm 1 m/S 745 mmHg 67%
    02:00 +23°C° 0 mm 1 m/S 745 mmHg 69%
    03:00 +23°C° 0 mm 1 m/S 745 mmHg 70%
    04:00 +23°C° 0 mm 1 m/S 746 mmHg 71%
    05:00 +23°C° 0 mm 1 m/S 746 mmHg 71%
    06:00 +24°C° 0 mm 1 m/S 746 mmHg 66%
    07:00 +26°C° 0 mm 2 m/S 746 mmHg 61%
    08:00 +27°C° 0 mm 3 m/S 746 mmHg 56%
    09:00 +29°C° 0 mm 2 m/S 746 mmHg 51%
    10:00 +30°C° 0 mm 2 m/S 746 mmHg 47%
    11:00 +31°C° 0 mm 2 m/S 746 mmHg 42%
    12:00 +31°C° 0 mm 1 m/S 746 mmHg 42%
    13:00 +31°C° 0 mm 1 m/S 746 mmHg 41%
    14:00 +31°C° 0 mm 1 m/S 746 mmHg 41%
    15:00 +32°C° 0 mm 1 m/S 746 mmHg 40%
    16:00 +32°C° 0 mm 1 m/S 746 mmHg 40%
    17:00 +32°C° 0 mm 2 m/S 746 mmHg 40%
    18:00 +30°C° 0 mm 2 m/S 746 mmHg 44%
    19:00 +29°C° 0 mm 2 m/S 746 mmHg 48%
    20:00 +27°C° 0 mm 2 m/S 746 mmHg 52%
    21:00 +27°C° 0 mm 3 m/S 746 mmHg 55%
    22:00 +26°C° 0 mm 3 m/S 746 mmHg 58%
    23:00 +25°C° 0 mm 3 m/S 746 mmHg 60%

    25 Juli, Mittwoch

    Zeit Temperatur Niederschläge Wind Luftdruck Luftfeuchtigkeit
    00:00 +24°C° 0 mm 3 m/S 746 mmHg 63%
    01:00 +24°C° 0 mm 3 m/S 746 mmHg 65%
    02:00 +22°C° 0 mm 3 m/S 746 mmHg 67%
    03:00 +22°C° 0 mm 3 m/S 747 mmHg 69%
    04:00 +22°C° 0 mm 3 m/S 747 mmHg 70%
    05:00 +22°C° 0 mm 3 m/S 747 mmHg 71%
    06:00 +25°C° 0 mm 3 m/S 747 mmHg 66%
    07:00 +27°C° 0 mm 3 m/S 747 mmHg 60%
    08:00 +29°C° 0 mm 3 m/S 747 mmHg 54%
    09:00 +30°C° 0 mm 3 m/S 747 mmHg 49%
    10:00 +31°C° 0 mm 3 m/S 747 mmHg 44%
    11:00 +34°C° 0 mm 3 m/S 747 mmHg 39%
    12:00 +34°C° 0 mm 3 m/S 747 mmHg 37%
    13:00 +34°C° 0 mm 3 m/S 747 mmHg 36%
    14:00 +35°C° 0 mm 3 m/S 747 mmHg 34%
    15:00 +34°C° 0 mm 3 m/S 747 mmHg 36%
    16:00 +34°C° 0 mm 3 m/S 746 mmHg 37%
    17:00 +34°C° 0 mm 3 m/S 746 mmHg 39%
    18:00 +31°C° 0 mm 3 m/S 747 mmHg 42%
    19:00 +30°C° 0 mm 3 m/S 747 mmHg 46%
    20:00 +28°C° 0 mm 3 m/S 747 mmHg 50%
    21:00 +28°C° 0 mm 3 m/S 747 mmHg 52%
    22:00 +27°C° 0 mm 3 m/S 747 mmHg 54%
    23:00 +26°C° 0 mm 3 m/S 747 mmHg 56%
    Mehr zeigen